Regional Weather Roundup
Issued by NWS

Home | Current Version | Previous Version | Text Only | Print | Product List | Glossary Off
Versions: 1 2 3 4 5 6 7 8 9 10 11 12 13 14 15 16 17 18 19 20 21 22 23 24 25 26 27 28 29 30 31 32 33 34 35 36 37 38 39 40 41 42 43 44 45 46 47 48 49 50

489
ASUS45 KBOU 162007
RWRCO

WEATHER ROUNDUP FOR COLORADO
NATIONAL WEATHER SERVICE DENVER/BOULDER CO
100 PM MST MON JAN 16 2017

NOTE: "FAIR" INDICATES FEW OR NO CLOUDS BELOW 12000 FEET WITH NO
SIGNIFICANT WEATHER AND/OR OBSTRUCTIONS TO VISIBILITY.

COZ001>005-013-030-031-162100-
...NORTHWEST COLORADO...

CITY           SKY/WX    TMP DP  RH WIND       PRES   REMARKS
CRAIG          CLOUDY    19  12  74 W6        30.14F WCI  11
HAYDEN         CLOUDY    18  12  79 W6        30.11F WCI   9
MEEKER         FAIR      25  15  66 S5        30.10F WCI  19
MOUNT WERNER   NOT AVBL
STEAMBOAT SPGS CLOUDY    20  18  90 SW6       30.08F WCI  12
WALDEN           N/A    N/A N/A N/A S3        30.05F
$$

COZ006>008-011-162100-
...WEST CENTRAL VALLEYS...

CITY           SKY/WX    TMP DP  RH WIND       PRES   REMARKS
GRAND JUNCTION PTSUNNY   40  16  37 CALM      30.05F
MONTROSE       CLOUDY    33  19  56 NW7       30.07F WCI  27
EAGLE          MOSUNNY   32  25  74 CALM      30.03F
RIFLE          FAIR      34  20  56 NW9       30.06F WCI  27
DELTA          CLOUDY    38  26  61 CALM      30.06F
NUCLA          FAIR      37  19  48 CALM      30.03F
$$

COZ017>023-064>068-162100-
...SOUTHWEST COLORADO...

CITY           SKY/WX    TMP DP  RH WIND       PRES   REMARKS
DURANGO        CLOUDY    35  30  82 SE6       29.96F WCI  30
CORTEZ         CLOUDY    39  29  67 W9        29.97F
PAGOSA SPRINGS LGT SNOW  34  33  96 S5        29.97S WCI  30
TELLURIDE      CLOUDY    28  24  86 W7        29.99S WCI  21
WOLF CREEK PAS CLOUDY    21  21 100 N7        30.02F WCI  13
$$

COZ009-010-012-014-032>034-037-058>063-162100-
...CENTRAL COLORADO...

CITY           SKY/WX    TMP DP  RH WIND       PRES   REMARKS
ASPEN          FAIR      32  25  75 N3        29.98F
BUENA VISTA    PTSUNNY   36  27  69 S7        29.97F
COPPER MTN     CLOUDY    27  21  80 MISG      30.02S
BERTHOUD PASS  NOT AVBL
COTTONWOOD PAS CLOUDY    32  27  80 SE8       29.99F WCI  25
GUNNISON       FAIR      27  23  85 S5        29.99F WCI  22
KREMMLING      FAIR      37  28  70 CALM      30.04F
LEADVILLE      CLOUDY    29  19  66 S8        29.96F WCI  21
MONARCH PASS   CLOUDY    21  19  93 MISG      30.05S
SALIDA         CLOUDY    38  33  82 CALM      30.06F
SUNLIGHT       CLOUDY    23  21  93 CALM      30.04S FOG
WILKERSON PASS CLOUDY   N/A N/A N/A NE13G18   30.02S FOG
$$

COZ069>075-162100-
...SAN LUIS VALLEY/SANGRE DE CRISTO MOUNTAINS...

CITY           SKY/WX    TMP DP  RH WIND       PRES   REMARKS
ALAMOSA        LGT SNOW  33  32  96 SW5       29.95F FOG     WCI  29
LA VETA PASS   LGT SNOW  27  23  86 S5        29.98S WCI  21
SAGUACHE       CLOUDY    34  32  93 S7        29.95F WCI  28
$$

COZ035-036-038>040-162100-
...NORTHERN COLORADO FRONT RANGE...

CITY           SKY/WX    TMP DP  RH WIND       PRES   REMARKS
DENVER INTL AP CLOUDY    33  26  75 NW8       30.06F WCI  26
DMNS CITY PARK   N/A     33  31  90 N6        30.07F WCI  28
AURORA         LGT SNOW  31  30  97 W7        30.07F FOG     WCI  24
FRONT RANGE AP NOT AVBL
ERIE MUNI ARPT CLOUDY    35  31  87 SW5       30.07F WCI  30
BOULDER MUN AP CLOUDY    36  32  87 CALM      30.07F
CENTENNIAL     LGT SNOW  31  28  89 NW7       30.06F VSB 1   WCI  24
BROOMFIELD     CLOUDY    32  30  93 CALM      30.07F
FORT COLLINS   FAIR      39  25  56 N5        30.07F
LONGMONT       CLOUDY    39  32  75 CALM      30.09F
$$

COZ041-046-047-076>085-087-088-162100-
...PIKES PEAK/PALMER DIVIDE AND SOUTHERN FOOTHILLS...

CITY           SKY/WX    TMP DP  RH WIND       PRES   REMARKS
COLO. SPRINGS  CLOUDY    33  24  69 NW26G37   30.00F WCI  20
A. F. ACADEMY  DRIZZLE   32  23  69 N23G30    30.00S WCI  19
SCHRIEVER AFB  NOT AVBL
ELLICOTT       CLOUDY   N/A N/A N/A N29G39    29.97S
FALCON         FAIR      30  23  74 NW18G37   29.99R WCI  18
FORT CARSON    NOT AVBL
LIMON          LGT SNOW  29  27  92 N23G32    30.00S FOG     WCI  15
MONUMENT HILL  CLOUDY    27  23  86 NW15G23   30.04S FOG     WCI  15
TRINIDAD       SNOW      32  29  88 N10       30.02S VSB 1/4 WCI  24
$$

COZ042>045-048>051-090-091-162100-
...NORTHEAST COLORADO...

CITY           SKY/WX    TMP DP  RH WIND       PRES   REMARKS
GREELEY ARPT   PTSUNNY   39  23  52 N12       30.08F
AKRON          LGT SNOW  31  25  78 N17       30.02F WCI  19
BURLINGTON     LGT SNOW  33  32  96 N16G25    29.95S FOG     WCI  23
WRAY           NOT AVBL
STERLING       CLOUDY    37  27  65 N14       30.03F
HOLYOKE        FAIR      37  28  70 NW20G29   30.00S
FORT MORGAN    CLOUDY    37  26  67 NW8       30.05F
$$

COZ086-089-092>099-162100-
...SOUTHEAST COLORADO...

CITY           SKY/WX    TMP DP  RH WIND       PRES   REMARKS
PUEBLO         CLOUDY    39  29  67 N14       30.01S
LA JUNTA       LGT SNOW  35  31  85 N13       30.01S VSB 1   WCI  26
LAMAR          LGT SNOW  34  31  88 NW8       29.96S FOG     WCI  27
SPRINGFIELD      N/A     34  31  88 NW20      29.94S WCI  23
$$




USA.gov is the U.S. government's official web portal to all federal, state and local government web resources and services.